Disclaimer

Please do not use the information listed here in-flight or in-navigation, as they are not provided to us by the airports but are provided by volunteers, so they might be outdated.

Search


Regions


Airport information page

Radio informations:
SIVKAR METEO - 126.6 MHz

Airport informations:
Latitude: 61° 38' 49.38" N
Longitude: 050° 50' 42.18" E
Elevation: 342 feet - 104 meters
Operating hours: 24 hour operations
Operating agency: Civil government, landing fees and diplomatic clearance may be required
Timezone: UTC+3(+4DT) - Last Sunday in March to last Sunday in October
Fuel: N/A

Runway information:
01/19 - 8203 x 164 feet< - >2500 x 50 meters

Recent METARs:
UUYY 171300Z 20004MPS 9999 -SHSN BKN017CB OVC033 M07/M09 Q0994 R18/450337 NOSIG RMK QFE737/0983
UUYY 171330Z 19004MPS 9999 -SHSN SCT018CB BKN040 M07/M09 Q0994 R18/450337 NOSIG RMK QFE737/0983
UUYY 171400Z 19004MPS 9000 -SHSN BKN019CB M07/M09 Q0994 R18/450337 NOSIG RMK QFE737/0983

Airport on the map: